Location: Kott?ru
(16.6209°N, 80.6208°E)
Time: 21:02:30
(UTC+00:00)

CZ-4 R/B - Pass Details

Date: 18 September 2020
Orbit: 530 x 600 km, 97.7° (Epoch: 27 October)

Event Time Altitude Azimuth Distance (km) Brightness Sun altitude
Rises 13:47:29 0° 181° (S) 2,814 4.9 -17.7°
Reaches altitude 10° 13:49:42 10° 187° (S) 1,921 4.1 -18.2°
Maximum altitude 13:53:41 45° 260° (W) 822 2.6 -19.2°
Drops below altitude 10° 13:57:43 10° 333° (NNW) 1,936 4.5 -20.1°
Sets 13:59:58 0° 339° (NNW) 2,839 5.3 -20.7°
